Time,TemperatureF,DewpointF,PressureIn,WindDirection,WindDirectionDegrees,WindSpeedMPH,WindSpeedGustMPH,Humidity,HourlyPrecipIn,Conditions,Clouds,dailyrainin,SoftwareType,DateUTC
2013-09-11 00:04:00,74.8,53.8,30.18,SSW,202,2.0,2.2,48,0.00,,---,0.00,VWS V14.01,2013-09-11 05:04:00,
2013-09-11 00:09:00,74.8,53.8,30.18,SSW,202,0.9,2.0,48,0.00,,---,0.00,VWS V14.01,2013-09-11 05:09:00,
2013-09-11 00:14:00,74.7,54.2,30.18,South,180,0.0,1.1,49,0.00,,---,0.00,VWS V14.01,2013-09-11 05:14:00,
2013-09-11 00:19:00,74.5,54.1,30.18,SSW,202,0.9,3.6,49,0.00,,---,0.00,VWS V14.01,2013-09-11 05:19:00,
2013-09-11 00:24:00,74.5,54.6,30.18,SSE,158,2.7,3.8,50,0.00,,---,0.00,VWS V14.01,2013-09-11 05:24:00,
2013-09-11 00:29:00,74.1,54.3,30.18,South,180,1.1,3.1,50,0.00,,---,0.00,VWS V14.01,2013-09-11 05:29:00,
2013-09-11 00:34:00,73.9,54.7,30.18,South,180,0.9,1.3,51,0.00,,---,0.00,VWS V14.01,2013-09-11 05:34:00,
2013-09-11 00:39:00,73.8,54.5,30.18,South,180,1.6,2.9,51,0.00,,---,0.00,VWS V14.01,2013-09-11 05:39:00,
2013-09-11 00:44:00,73.8,55.1,30.18,South,180,1.1,1.6,52,0.00,,---,0.00,VWS V14.01,2013-09-11 05:44:00,
2013-09-11 00:49:00,73.6,54.9,30.18,SSE,158,0.0,2.9,52,0.00,,---,0.00,VWS V14.01,2013-09-11 05:49:00,
2013-09-11 00:54:00,73.4,55.2,30.18,SSW,202,2.9,2.9,53,0.00,,---,0.00,VWS V14.01,2013-09-11 05:54:00,
2013-09-11 00:59:00,73.2,55.6,30.18,South,180,1.6,2.5,54,0.00,,---,0.00,VWS V14.01,2013-09-11 05:59:00,
2013-09-11 01:04:00,73.2,56.1,30.18,South,180,0.0,2.2,55,0.00,,---,0.00,VWS V14.01,2013-09-11 06:04:00,
2013-09-11 01:09:00,73.2,56.1,30.18,SSE,158,0.9,2.7,55,0.00,,---,0.00,VWS V14.01,2013-09-11 06:09:00,
2013-09-11 01:14:00,73.0,55.9,30.18,South,180,0.0,0.0,55,0.00,,---,0.00,VWS V14.01,2013-09-11 06:14:00,
2013-09-11 01:19:00,72.9,56.3,30.18,South,180,0.0,1.6,56,0.00,,---,0.00,VWS V14.01,2013-09-11 06:19:00,
2013-09-11 01:24:00,72.9,56.8,30.18,South,180,0.0,2.9,57,0.00,,---,0.00,VWS V14.01,2013-09-11 06:24:00,
2013-09-11 01:29:00,72.9,57.2,30.18,South,180,1.1,3.4,58,0.00,,---,0.00,VWS V14.01,2013-09-11 06:29:00,
2013-09-11 01:34:00,72.7,57.1,30.18,South,180,1.3,2.0,58,0.00,,---,0.00,VWS V14.01,2013-09-11 06:34:00,
2013-09-11 01:39:00,72.7,57.1,30.18,SSE,158,1.3,2.5,58,0.00,,---,0.00,VWS V14.01,2013-09-11 06:39:00,
2013-09-11 01:44:00,72.9,57.2,30.18,South,180,2.5,2.5,58,0.00,,---,0.00,VWS V14.01,2013-09-11 06:44:00,
2013-09-11 01:49:00,72.7,57.5,30.18,SSW,202,0.9,2.5,59,0.00,,---,0.00,VWS V14.01,2013-09-11 06:49:00,
2013-09-11 01:54:00,72.5,56.9,30.18,South,180,0.0,0.0,58,0.00,,---,0.00,VWS V14.01,2013-09-11 06:54:00,
2013-09-11 01:59:00,72.1,56.6,30.18,South,180,0.0,1.6,58,0.00,,---,0.00,VWS V14.01,2013-09-11 06:59:00,
2013-09-11 02:04:00,72.1,57.5,30.18,South,180,0.0,2.2,60,0.00,,---,0.00,VWS V14.01,2013-09-11 07:04:00,
2013-09-11 02:09:00,72.1,57.5,30.18,South,180,1.6,1.6,60,0.00,,---,0.00,VWS V14.01,2013-09-11 07:09:00,
2013-09-11 02:14:00,71.8,57.2,30.18,South,180,1.1,1.6,60,0.00,,---,0.00,VWS V14.01,2013-09-11 07:14:00,
2013-09-11 02:19:00,71.8,57.6,30.18,South,180,1.1,1.1,61,0.00,,---,0.00,VWS V14.01,2013-09-11 07:19:00,
2013-09-11 02:24:00,71.6,57.9,30.18,SSW,202,0.0,0.0,62,0.00,,---,0.00,VWS V14.01,2013-09-11 07:24:00,
2013-09-11 02:29:00,71.4,57.7,30.18,South,180,1.6,2.0,62,0.00,,---,0.00,VWS V14.01,2013-09-11 07:29:00,
2013-09-11 02:34:00,71.4,58.2,30.18,South,180,0.0,2.5,63,0.00,,---,0.00,VWS V14.01,2013-09-11 07:34:00,
2013-09-11 02:39:00,71.6,57.9,30.18,South,180,0.0,0.0,62,0.00,,---,0.00,VWS V14.01,2013-09-11 07:39:00,
2013-09-11 02:44:00,71.8,58.5,30.18,SW,225,0.0,0.0,63,0.00,,---,0.00,VWS V14.01,2013-09-11 07:44:00,
2013-09-11 02:49:00,71.8,58.5,30.18,South,180,2.0,2.2,63,0.00,,---,0.00,VWS V14.01,2013-09-11 07:49:00,
2013-09-11 02:54:00,72.0,58.7,30.18,SSE,158,1.1,1.1,63,0.00,,---,0.00,VWS V14.01,2013-09-11 07:54:00,
2013-09-11 02:59:00,72.1,58.9,30.18,SSW,202,0.0,1.3,63,0.00,,---,0.00,VWS V14.01,2013-09-11 07:59:00,
2013-09-11 03:04:00,72.3,59.0,30.18,SSE,158,3.8,3.8,63,0.00,,---,0.00,VWS V14.01,2013-09-11 08:04:00,
2013-09-11 03:09:00,72.1,58.9,30.18,South,180,0.0,1.3,63,0.00,,---,0.00,VWS V14.01,2013-09-11 08:09:00,
2013-09-11 03:14:00,72.3,59.0,30.18,South,180,0.0,3.1,63,0.00,,---,0.00,VWS V14.01,2013-09-11 08:14:00,
2013-09-11 03:19:00,72.3,59.0,30.18,SSW,202,0.0,4.7,63,0.00,,---,0.00,VWS V14.01,2013-09-11 08:19:00,
2013-09-11 03:24:00,72.5,59.2,30.21,SSE,158,0.0,2.0,63,0.00,,---,0.00,VWS V14.01,2013-09-11 08:24:00,
2013-09-11 03:29:00,72.7,59.4,30.21,South,180,0.0,1.3,63,0.00,,---,0.00,VWS V14.01,2013-09-11 08:29:00,
2013-09-11 03:34:00,72.7,59.4,30.21,SSW,202,0.0,2.5,63,0.00,,---,0.00,VWS V14.01,2013-09-11 08:34:00,
2013-09-11 03:39:00,72.7,59.4,30.21,SSE,158,2.0,3.1,63,0.00,,---,0.00,VWS V14.01,2013-09-11 08:39:00,
2013-09-11 03:44:00,72.7,59.4,30.21,South,180,0.0,2.0,63,0.00,,---,0.00,VWS V14.01,2013-09-11 08:44:00,
2013-09-11 03:49:00,72.7,59.4,30.21,South,180,0.0,2.5,63,0.00,,---,0.00,VWS V14.01,2013-09-11 08:49:00,
2013-09-11 03:54:00,72.7,59.8,30.21,South,180,0.9,2.5,64,0.00,,---,0.00,VWS V14.01,2013-09-11 08:54:00,
2013-09-11 03:59:00,72.9,59.5,30.21,South,180,1.1,1.3,63,0.00,,---,0.00,VWS V14.01,2013-09-11 08:59:00,
2013-09-11 04:04:00,72.7,59.8,30.21,South,180,0.0,3.8,64,0.00,,---,0.00,VWS V14.01,2013-09-11 09:04:00,
2013-09-11 04:09:00,72.9,60.0,30.18,South,180,0.0,0.0,64,0.00,,---,0.00,VWS V14.01,2013-09-11 09:09:00,
2013-09-11 04:15:00,72.9,60.0,30.18,South,180,1.1,2.5,64,0.00,,---,0.00,VWS V14.01,2013-09-11 09:15:00,
2013-09-11 04:21:00,72.7,59.8,30.18,SW,225,0.0,2.2,64,0.00,,---,0.00,VWS V14.01,2013-09-11 09:21:00,
2013-09-11 04:26:00,72.7,59.8,30.21,SSW,202,2.0,2.5,64,0.00,,---,0.00,VWS V14.01,2013-09-11 09:26:00,
2013-09-11 04:31:00,72.7,59.8,30.21,SSE,158,2.7,2.7,64,0.00,,---,0.00,VWS V14.01,2013-09-11 09:31:00,
2013-09-11 04:37:00,72.5,60.1,30.21,South,180,0.0,2.2,65,0.00,,---,0.00,VWS V14.01,2013-09-11 09:37:00,
2013-09-11 04:42:00,72.3,59.9,30.18,South,180,0.0,4.3,65,0.00,,---,0.00,VWS V14.01,2013-09-11 09:42:00,
2013-09-11 04:47:00,72.1,59.7,30.18,SSE,158,1.1,2.0,65,0.00,,---,0.00,VWS V14.01,2013-09-11 09:47:00,
2013-09-11 04:53:00,72.1,59.7,30.18,South,180,0.0,2.5,65,0.00,,---,0.00,VWS V14.01,2013-09-11 09:53:00,
2013-09-11 04:58:00,72.1,59.7,30.21,South,180,0.0,4.3,65,0.00,,---,0.00,VWS V14.01,2013-09-11 09:58:00,
2013-09-11 05:04:00,72.1,59.7,30.21,SSW,202,0.0,2.2,65,0.00,,---,0.00,VWS V14.01,2013-09-11 10:04:00,
2013-09-11 05:09:00,72.0,60.0,30.21,South,180,0.0,1.6,66,0.00,,---,0.00,VWS V14.01,2013-09-11 10:09:00,
2013-09-11 05:14:00,71.8,59.4,30.18,South,180,0.0,0.0,65,0.00,,---,0.00,VWS V14.01,2013-09-11 10:14:00,
2013-09-11 05:19:00,71.6,59.7,30.18,South,180,1.1,1.1,66,0.00,,---,0.00,VWS V14.01,2013-09-11 10:19:00,
2013-09-11 05:25:00,71.4,59.5,30.18,South,180,2.5,2.5,66,0.00,,---,0.00,VWS V14.01,2013-09-11 10:25:00,
2013-09-11 05:30:00,71.2,59.7,30.18,South,180,1.3,2.2,67,0.00,,---,0.00,VWS V14.01,2013-09-11 10:30:00,
2013-09-11 05:36:00,71.1,60.0,30.18,South,180,3.1,3.1,68,0.00,,---,0.00,VWS V14.01,2013-09-11 10:36:00,
2013-09-11 05:42:00,70.9,59.8,30.21,South,180,0.0,2.2,68,0.00,,---,0.00,VWS V14.01,2013-09-11 10:42:00,
2013-09-11 05:47:00,70.7,59.6,30.21,SSE,158,0.0,2.0,68,0.00,,---,0.00,VWS V14.01,2013-09-11 10:47:00,
2013-09-11 05:53:00,70.5,59.5,30.21,South,180,0.0,2.5,68,0.00,,---,0.00,VWS V14.01,2013-09-11 10:53:00,
2013-09-11 05:58:00,70.3,59.3,30.21,South,180,0.0,0.0,68,0.00,,---,0.00,VWS V14.01,2013-09-11 10:58:00,
2013-09-11 06:05:00,70.2,59.5,30.21,South,180,0.0,0.0,69,0.00,,---,0.00,VWS V14.01,2013-09-11 11:05:00,
2013-09-11 06:10:00,70.0,59.3,30.21,SSW,202,0.0,0.0,69,0.00,,---,0.00,VWS V14.01,2013-09-11 11:10:00,
2013-09-11 06:15:00,69.6,59.4,30.21,South,180,0.0,0.0,70,0.00,,---,0.00,VWS V14.01,2013-09-11 11:15:00,
2013-09-11 06:21:00,69.3,59.1,30.21,South,180,0.0,0.0,70,0.00,,---,0.00,VWS V14.01,2013-09-11 11:21:00,
2013-09-11 06:26:00,69.3,59.5,30.21,SSE,158,0.0,0.9,71,0.00,,---,0.00,VWS V14.01,2013-09-11 11:26:00,
2013-09-11 06:31:00,69.1,59.3,30.21,South,180,0.0,0.0,71,0.00,,---,0.00,VWS V14.01,2013-09-11 11:31:00,
2013-09-11 06:36:00,68.7,59.0,30.21,South,180,0.0,0.0,71,0.00,,---,0.00,VWS V14.01,2013-09-11 11:36:00,
2013-09-11 06:42:00,68.4,59.0,30.21,South,180,0.0,0.0,72,0.00,,---,0.00,VWS V14.01,2013-09-11 11:42:00,
2013-09-11 06:47:00,68.2,58.8,30.21,South,180,0.0,0.0,72,0.00,,---,0.00,VWS V14.01,2013-09-11 11:47:00,
2013-09-11 06:52:00,68.0,59.4,30.21,South,180,0.0,0.0,74,0.00,,---,0.00,VWS V14.01,2013-09-11 11:52:00,
2013-09-11 06:58:00,67.8,59.6,30.21,SSE,158,0.0,0.0,75,0.00,,---,0.00,VWS V14.01,2013-09-11 11:58:00,
2013-09-11 07:03:00,67.8,59.6,30.21,SSE,158,0.0,0.0,75,0.00,,---,0.00,VWS V14.01,2013-09-11 12:03:00,
2013-09-11 07:08:00,67.8,60.0,30.21,SSE,158,0.0,0.0,76,0.00,,---,0.00,VWS V14.01,2013-09-11 12:08:00,
2013-09-11 07:13:00,67.6,59.8,30.21,SSE,158,0.0,0.0,76,0.00,,---,0.00,VWS V14.01,2013-09-11 12:13:00,
2013-09-11 07:18:00,67.8,60.3,30.21,SE,135,0.0,0.0,77,0.00,,---,0.00,VWS V14.01,2013-09-11 12:18:00,
2013-09-11 07:24:00,68.0,60.2,30.21,SSE,158,0.0,0.0,76,0.00,,---,0.00,VWS V14.01,2013-09-11 12:24:00,
2013-09-11 07:29:00,68.0,60.2,30.21,SSE,158,0.0,0.0,76,0.00,,---,0.00,VWS V14.01,2013-09-11 12:29:00,
2013-09-11 07:34:00,68.0,60.2,30.21,SSE,158,0.0,0.0,76,0.00,,---,0.00,VWS V14.01,2013-09-11 12:34:00,
2013-09-11 07:39:00,68.5,60.7,30.21,South,180,0.0,0.0,76,0.00,,---,0.00,VWS V14.01,2013-09-11 12:39:00,
2013-09-11 07:45:00,68.5,60.7,30.18,SSE,158,0.0,0.0,76,0.00,,---,0.00,VWS V14.01,2013-09-11 12:45:00,
2013-09-11 07:50:00,70.2,61.9,30.18,SSE,158,0.0,0.0,75,0.00,,---,0.00,VWS V14.01,2013-09-11 12:50:00,
2013-09-11 07:56:00,70.9,61.8,30.21,SSW,202,0.0,1.1,73,0.00,,---,0.00,VWS V14.01,2013-09-11 12:56:00,
2013-09-11 08:01:00,71.2,62.2,30.21,SSE,158,0.0,1.3,73,0.00,,---,0.00,VWS V14.01,2013-09-11 13:01:00,
2013-09-11 08:06:00,72.3,61.6,30.21,SSW,202,0.9,2.0,69,0.00,,---,0.00,VWS V14.01,2013-09-11 13:06:00,
2013-09-11 08:11:00,72.9,61.3,30.18,SE,135,3.6,3.6,67,0.00,,---,0.00,VWS V14.01,2013-09-11 13:11:00,
2013-09-11 08:16:00,73.4,61.4,30.18,South,180,0.9,1.6,66,0.00,,---,0.00,VWS V14.01,2013-09-11 13:16:00,
2013-09-11 08:21:00,73.8,61.3,30.18,South,180,1.3,3.6,65,0.00,,---,0.00,VWS V14.01,2013-09-11 13:21:00,
2013-09-11 08:27:00,74.5,61.5,30.21,South,180,0.0,0.0,64,0.00,,---,0.00,VWS V14.01,2013-09-11 13:27:00,
2013-09-11 08:32:00,75.0,61.6,30.21,South,180,1.6,1.6,63,0.00,,---,0.00,VWS V14.01,2013-09-11 13:32:00,
2013-09-11 08:37:00,75.6,61.2,30.21,SSW,202,1.3,2.9,61,0.00,,---,0.00,VWS V14.01,2013-09-11 13:37:00,
2013-09-11 08:42:00,76.3,61.9,30.21,South,180,3.1,3.8,61,0.00,,---,0.00,VWS V14.01,2013-09-11 13:42:00,
2013-09-11 08:48:00,76.6,60.8,30.21,West,270,2.7,4.7,58,0.00,,---,0.00,VWS V14.01,2013-09-11 13:48:00,
2013-09-11 08:53:00,77.2,60.8,30.21,SSW,202,1.6,3.8,57,0.00,,---,0.00,VWS V14.01,2013-09-11 13:53:00,
2013-09-11 08:59:00,78.1,60.6,30.21,SSW,202,1.1,3.4,55,0.00,,---,0.00,VWS V14.01,2013-09-11 13:59:00,
2013-09-11 09:04:00,78.8,60.8,30.21,South,180,2.0,3.1,54,0.00,,---,0.00,VWS V14.01,2013-09-11 14:04:00,
2013-09-11 09:09:00,79.7,61.1,30.21,South,180,1.1,2.9,53,0.00,,---,0.00,VWS V14.01,2013-09-11 14:09:00,
2013-09-11 09:14:00,79.9,60.2,30.21,SSW,202,3.1,4.9,51,0.00,,---,0.00,VWS V14.01,2013-09-11 14:14:00,
2013-09-11 09:19:00,80.8,61.5,30.21,South,180,2.7,2.7,52,0.00,,---,0.00,VWS V14.01,2013-09-11 14:19:00,
2013-09-11 09:24:00,81.1,60.2,30.21,SSW,202,2.2,4.9,49,0.00,,---,0.00,VWS V14.01,2013-09-11 14:24:00,
2013-09-11 09:30:00,81.1,60.2,30.21,SSW,202,1.3,2.7,49,0.00,,---,0.00,VWS V14.01,2013-09-11 14:30:00,
2013-09-11 09:35:00,81.7,60.1,30.21,South,180,1.3,3.4,48,0.00,,---,0.00,VWS V14.01,2013-09-11 14:35:00,
2013-09-11 09:40:00,82.2,60.6,30.21,South,180,3.8,3.8,48,0.00,,---,0.00,VWS V14.01,2013-09-11 14:40:00,
2013-09-11 09:46:00,83.7,61.9,30.21,West,270,2.2,3.4,48,0.00,,---,0.00,VWS V14.01,2013-09-11 14:46:00,
2013-09-11 09:52:00,85.6,62.5,30.21,SW,225,3.8,3.8,46,0.00,,---,0.00,VWS V14.01,2013-09-11 14:52:00,
2013-09-11 09:58:00,85.6,61.9,30.21,SSW,202,2.5,4.7,45,0.00,,---,0.00,VWS V14.01,2013-09-11 14:58:00,
2013-09-11 10:03:00,85.8,62.0,30.21,SSE,158,2.7,4.9,45,0.00,,---,0.00,VWS V14.01,2013-09-11 15:03:00,
2013-09-11 10:08:00,86.2,61.7,30.21,South,180,4.0,5.8,44,0.00,,---,0.00,VWS V14.01,2013-09-11 15:08:00,
2013-09-11 10:14:00,87.1,63.2,30.21,SSE,158,2.2,2.7,45,0.00,,---,0.00,VWS V14.01,2013-09-11 15:14:00,
2013-09-11 10:19:00,88.3,63.7,30.21,SW,225,3.1,4.3,44,0.00,,---,0.00,VWS V14.01,2013-09-11 15:19:00,
2013-09-11 10:24:00,88.7,63.3,30.21,West,270,4.3,7.2,43,0.00,,---,0.00,VWS V14.01,2013-09-11 15:24:00,
2013-09-11 10:30:00,88.2,62.9,30.21,SSW,202,3.6,5.4,43,0.00,,---,0.00,VWS V14.01,2013-09-11 15:30:00,
2013-09-11 10:35:00,89.1,63.7,30.21,SW,225,0.9,2.9,43,0.00,,---,0.00,VWS V14.01,2013-09-11 15:35:00,
2013-09-11 10:40:00,90.1,64.0,30.21,WSW,248,2.0,3.4,42,0.00,,---,0.00,VWS V14.01,2013-09-11 15:40:00,
2013-09-11 10:45:00,90.5,63.6,30.21,NNE,22,1.1,3.4,41,0.00,,---,0.00,VWS V14.01,2013-09-11 15:45:00,
2013-09-11 10:51:00,91.0,64.1,30.21,SSE,158,3.8,3.8,41,0.00,,---,0.00,VWS V14.01,2013-09-11 15:51:00,
2013-09-11 10:56:00,90.5,63.6,30.21,South,180,2.5,4.0,41,0.00,,---,0.00,VWS V14.01,2013-09-11 15:56:00,
2013-09-11 11:01:00,91.0,63.4,30.21,SSW,202,6.5,6.5,40,0.00,,---,0.00,VWS V14.01,2013-09-11 16:01:00,
2013-09-11 11:06:00,91.6,64.6,30.21,South,180,4.0,4.0,41,0.00,,---,0.00,VWS V14.01,2013-09-11 16:06:00,
2013-09-11 11:11:00,92.3,64.5,30.21,West,270,1.1,3.8,40,0.00,,---,0.00,VWS V14.01,2013-09-11 16:11:00,
2013-09-11 11:16:00,92.3,64.5,30.21,WSW,248,2.5,5.6,40,0.00,,---,0.00,VWS V14.01,2013-09-11 16:16:00,
2013-09-11 11:21:00,92.7,64.8,30.21,West,270,4.3,4.3,40,0.00,,---,0.00,VWS V14.01,2013-09-11 16:21:00,
2013-09-11 11:27:00,92.7,64.1,30.21,SSW,202,6.3,6.3,39,0.00,,---,0.00,VWS V14.01,2013-09-11 16:27:00,
2013-09-11 11:32:00,93.7,65.1,30.21,SSW,202,2.7,3.8,39,0.00,,---,0.00,VWS V14.01,2013-09-11 16:32:00,
2013-09-11 11:37:00,94.1,65.4,30.21,SSW,202,3.8,3.8,39,0.00,,---,0.00,VWS V14.01,2013-09-11 16:37:00,
2013-09-11 11:43:00,93.9,65.2,30.21,SSW,202,3.8,3.8,39,0.00,,---,0.00,VWS V14.01,2013-09-11 16:43:00,
2013-09-11 11:48:00,92.8,64.3,30.21,SSW,202,4.0,5.4,39,0.00,,---,0.00,VWS V14.01,2013-09-11 16:48:00,
2013-09-11 11:53:00,94.5,65.7,30.21,SSW,202,0.0,3.6,39,0.00,,---,0.00,VWS V14.01,2013-09-11 16:53:00,
2013-09-11 11:58:00,93.9,64.5,30.21,SW,225,5.6,6.0,38,0.00,,---,0.00,VWS V14.01,2013-09-11 16:58:00,
2013-09-11 12:04:00,94.5,64.9,30.21,West,270,6.0,6.0,38,0.00,,---,0.00,VWS V14.01,2013-09-11 17:04:00,
2013-09-11 12:09:00,95.2,64.8,30.21,West,270,5.6,6.9,37,0.00,,---,0.00,VWS V14.01,2013-09-11 17:09:00,
2013-09-11 12:14:00,95.4,65.0,30.21,NW,315,1.6,6.5,37,0.00,,---,0.00,VWS V14.01,2013-09-11 17:14:00,
2013-09-11 12:19:00,95.0,64.7,30.21,West,270,4.7,5.6,37,0.00,,---,0.00,VWS V14.01,2013-09-11 17:19:00,
2013-09-11 12:24:00,95.7,65.3,30.21,SSW,202,2.9,3.4,37,0.00,,---,0.00,VWS V14.01,2013-09-11 17:24:00,
2013-09-11 12:30:00,95.9,65.5,30.21,SSW,202,2.9,3.4,37,0.00,,---,0.00,VWS V14.01,2013-09-11 17:30:00,
2013-09-11 12:35:00,94.5,64.2,30.21,SW,225,10.5,10.5,37,0.00,,---,0.00,VWS V14.01,2013-09-11 17:35:00,
2013-09-11 12:40:00,94.6,64.3,30.21,South,180,4.0,7.2,37,0.00,,---,0.00,VWS V14.01,2013-09-11 17:40:00,
2013-09-11 12:46:00,94.8,64.5,30.21,SW,225,3.8,5.6,37,0.00,,---,0.00,VWS V14.01,2013-09-11 17:46:00,
2013-09-11 12:51:00,95.4,64.2,30.21,South,180,2.9,5.4,36,0.00,,---,0.00,VWS V14.01,2013-09-11 17:51:00,
2013-09-11 12:56:00,93.9,63.7,30.21,SW,225,0.0,4.0,37,0.00,,---,0.00,VWS V14.01,2013-09-11 17:56:00,
2013-09-11 13:01:00,95.5,64.4,30.21,SW,225,6.0,6.5,36,0.00,,---,0.00,VWS V14.01,2013-09-11 18:01:00,
2013-09-11 13:07:00,95.5,63.5,30.21,SSW,202,4.3,5.6,35,0.00,,---,0.00,VWS V14.01,2013-09-11 18:07:00,
2013-09-11 13:12:00,94.8,62.9,30.21,SW,225,3.4,7.6,35,0.00,,---,0.00,VWS V14.01,2013-09-11 18:12:00,
2013-09-11 13:17:00,96.1,63.2,30.21,South,180,3.4,6.0,34,0.00,,---,0.00,VWS V14.01,2013-09-11 18:17:00,
2013-09-11 13:21:00,98.6,65.4,30.21,WSW,248,1.6,3.1,34,0.00,,---,0.00,VWS V14.01,2013-09-11 18:21:00,
2013-09-11 13:27:00,97.7,62.9,30.18,SSE,158,4.0,5.8,32,0.00,,---,0.00,VWS V14.01,2013-09-11 18:27:00,
2013-09-11 13:33:00,98.6,63.7,30.18,South,180,2.7,3.4,32,0.00,,---,0.00,VWS V14.01,2013-09-11 18:33:00,
2013-09-11 13:38:00,95.7,60.3,30.18,SE,135,2.9,7.8,31,0.00,,---,0.00,VWS V14.01,2013-09-11 18:38:00,
2013-09-11 13:43:00,96.6,62.8,30.21,SSW,202,3.8,8.1,33,0.00,,---,0.00,VWS V14.01,2013-09-11 18:43:00,
2013-09-11 13:48:00,97.3,63.5,30.21,SSE,158,3.1,4.3,33,0.00,,---,0.00,VWS V14.01,2013-09-11 18:48:00,
2013-09-11 13:54:00,95.7,61.2,30.21,SW,225,6.5,6.5,32,0.00,,---,0.00,VWS V14.01,2013-09-11 18:54:00,
2013-09-11 13:59:00,96.6,62.8,30.21,West,270,4.0,4.7,33,0.00,,---,0.00,VWS V14.01,2013-09-11 18:59:00,
2013-09-11 14:04:00,97.3,63.5,30.21,SW,225,4.3,6.3,33,0.00,,---,0.00,VWS V14.01,2013-09-11 19:04:00,
2013-09-11 14:09:00,96.6,62.8,30.18,South,180,3.1,5.6,33,0.00,,---,0.00,VWS V14.01,2013-09-11 19:09:00,
2013-09-11 14:14:00,96.8,63.0,30.18,ENE,68,4.3,4.9,33,0.00,,---,0.00,VWS V14.01,2013-09-11 19:14:00,
2013-09-11 14:19:00,95.4,62.6,30.18,West,270,1.3,6.0,34,0.00,,---,0.00,VWS V14.01,2013-09-11 19:19:00,
2013-09-11 14:24:00,95.9,62.2,30.18,SSW,202,2.9,4.3,33,0.00,,---,0.00,VWS V14.01,2013-09-11 19:24:00,
2013-09-11 14:30:00,97.7,64.6,30.18,SW,225,2.7,2.7,34,0.00,,---,0.00,VWS V14.01,2013-09-11 19:30:00,
2013-09-11 14:36:00,98.8,63.8,30.18,West,270,3.4,6.0,32,0.00,,---,0.00,VWS V14.01,2013-09-11 19:36:00,
2013-09-11 14:41:00,98.6,63.7,30.15,WNW,292,4.0,4.3,32,0.00,,---,0.00,VWS V14.01,2013-09-11 19:41:00,
2013-09-11 14:46:00,99.3,64.3,30.15,SW,225,4.0,6.5,32,0.00,,---,0.00,VWS V14.01,2013-09-11 19:46:00,
2013-09-11 14:51:00,97.7,62.9,30.15,West,270,2.5,3.4,32,0.00,,---,0.00,VWS V14.01,2013-09-11 19:51:00,
2013-09-11 14:56:00,99.3,63.4,30.15,SW,225,0.0,4.3,31,0.00,,---,0.00,VWS V14.01,2013-09-11 19:56:00,
2013-09-11 15:01:00,99.0,64.0,30.15,SW,225,1.1,2.7,32,0.00,,---,0.00,VWS V14.01,2013-09-11 20:01:00,
2013-09-11 15:06:00,99.7,63.7,30.15,SW,225,3.8,7.4,31,0.00,,---,0.00,VWS V14.01,2013-09-11 20:06:00,
2013-09-11 15:12:00,99.3,62.4,30.15,SW,225,4.3,4.3,30,0.00,,---,0.00,VWS V14.01,2013-09-11 20:12:00,
2013-09-11 15:17:00,98.2,62.5,30.15,South,180,3.8,3.8,31,0.00,,---,0.00,VWS V14.01,2013-09-11 20:17:00,
2013-09-11 15:23:00,98.2,62.5,30.15,SSW,202,5.4,5.4,31,0.00,,---,0.00,VWS V14.01,2013-09-11 20:23:00,
2013-09-11 15:28:00,99.3,63.4,30.15,South,180,2.0,3.4,31,0.00,,---,0.00,VWS V14.01,2013-09-11 20:28:00,
2013-09-11 15:33:00,97.2,61.5,30.15,SSW,202,4.3,6.3,31,0.00,,---,0.00,VWS V14.01,2013-09-11 20:33:00,
2013-09-11 15:38:00,97.5,62.7,30.15,SSE,158,3.4,3.4,32,0.00,,---,0.00,VWS V14.01,2013-09-11 20:38:00,
2013-09-11 15:43:00,99.3,64.3,30.12,South,180,2.0,3.8,32,0.00,,---,0.00,VWS V14.01,2013-09-11 20:43:00,
2013-09-11 15:48:00,97.7,62.0,30.12,SW,225,3.8,5.4,31,0.00,,---,0.00,VWS V14.01,2013-09-11 20:48:00,
2013-09-11 15:53:00,97.2,61.5,30.12,South,180,5.8,6.9,31,0.00,,---,0.00,VWS V14.01,2013-09-11 20:53:00,
2013-09-11 15:59:00,98.1,62.3,30.15,SSW,202,2.5,3.4,31,0.00,,---,0.00,VWS V14.01,2013-09-11 20:59:00,
2013-09-11 16:04:00,98.2,61.5,30.15,SSW,202,5.8,5.8,30,0.00,,---,0.00,VWS V14.01,2013-09-11 21:04:00,
2013-09-11 16:10:00,96.6,61.0,30.15,South,180,0.0,2.0,31,0.00,,---,0.00,VWS V14.01,2013-09-11 21:10:00,
2013-09-11 16:15:00,97.9,62.1,30.15,SSW,202,4.9,4.9,31,0.00,,---,0.00,VWS V14.01,2013-09-11 21:15:00,
2013-09-11 16:20:00,97.0,60.4,30.15,SSW,202,4.9,4.9,30,0.00,,---,0.00,VWS V14.01,2013-09-11 21:20:00,
2013-09-11 16:25:00,98.2,61.5,30.12,SSW,202,4.5,4.5,30,0.00,,---,0.00,VWS V14.01,2013-09-11 21:25:00,
2013-09-11 16:30:00,97.9,60.2,30.12,SSE,158,7.2,7.2,29,0.00,,---,0.00,VWS V14.01,2013-09-11 21:30:00,
2013-09-11 16:35:00,96.6,60.1,30.12,South,180,3.4,3.4,30,0.00,,---,0.00,VWS V14.01,2013-09-11 21:35:00,
2013-09-11 16:40:00,97.0,59.5,30.12,SSW,202,5.4,5.4,29,0.00,,---,0.00,VWS V14.01,2013-09-11 21:40:00,
2013-09-11 16:45:00,97.5,60.0,30.12,SSW,202,6.0,6.0,29,0.00,,---,0.00,VWS V14.01,2013-09-11 21:45:00,
2013-09-11 16:50:00,97.3,59.8,30.12,South,180,3.8,8.7,29,0.00,,---,0.00,VWS V14.01,2013-09-11 21:50:00,
2013-09-11 16:55:00,97.2,59.6,30.12,South,180,4.3,4.9,29,0.00,,---,0.00,VWS V14.01,2013-09-11 21:55:00,
2013-09-11 17:00:00,97.3,59.8,30.12,South,180,3.6,4.9,29,0.00,,---,0.00,VWS V14.01,2013-09-11 22:00:00,
2013-09-11 17:05:00,97.2,59.6,30.12,SSW,202,3.6,5.4,29,0.00,,---,0.00,VWS V14.01,2013-09-11 22:05:00,
2013-09-11 17:10:00,96.8,59.3,30.12,SE,135,0.9,3.4,29,0.00,,---,0.00,VWS V14.01,2013-09-11 22:10:00,
2013-09-11 17:15:00,96.8,58.3,30.12,SSW,202,2.9,7.6,28,0.00,,---,0.00,VWS V14.01,2013-09-11 22:15:00,
2013-09-11 17:20:00,96.6,59.2,30.12,SSW,202,4.0,4.0,29,0.00,,---,0.00,VWS V14.01,2013-09-11 22:20:00,
2013-09-11 17:25:00,96.4,59.0,30.12,SW,225,3.1,6.0,29,0.00,,---,0.00,VWS V14.01,2013-09-11 22:25:00,
2013-09-11 17:30:00,96.6,59.2,30.12,SSW,202,2.0,5.4,29,0.00,,---,0.00,VWS V14.01,2013-09-11 22:30:00,
2013-09-11 17:35:00,96.8,58.3,30.12,WSW,248,4.3,4.3,28,0.00,,---,0.00,VWS V14.01,2013-09-11 22:35:00,
2013-09-11 17:40:00,96.8,58.3,30.09,WSW,248,3.8,3.8,28,0.00,,---,0.00,VWS V14.01,2013-09-11 22:40:00,
2013-09-11 17:45:00,96.8,58.3,30.09,South,180,5.4,5.4,28,0.00,,---,0.00,VWS V14.01,2013-09-11 22:45:00,
2013-09-11 17:50:00,95.9,57.6,30.09,SW,225,2.0,5.4,28,0.00,,---,0.00,VWS V14.01,2013-09-11 22:50:00,
2013-09-11 17:55:00,95.9,58.6,30.09,South,180,3.1,3.1,29,0.00,,---,0.00,VWS V14.01,2013-09-11 22:55:00,
2013-09-11 18:00:00,95.2,57.0,30.09,SSE,158,3.8,5.4,28,0.00,,---,0.00,VWS V14.01,2013-09-11 23:00:00,
2013-09-11 18:05:00,94.8,57.6,30.09,SSW,202,3.4,5.4,29,0.00,,---,0.00,VWS V14.01,2013-09-11 23:05:00,
2013-09-11 18:10:00,94.5,57.3,30.09,SSW,202,4.0,5.4,29,0.00,,---,0.00,VWS V14.01,2013-09-11 23:10:00,
2013-09-11 18:15:00,94.1,57.0,30.09,SSE,158,4.7,4.7,29,0.00,,---,0.00,VWS V14.01,2013-09-11 23:15:00,
2013-09-11 18:20:00,93.9,56.9,30.09,South,180,3.8,4.0,29,0.00,,---,0.00,VWS V14.01,2013-09-11 23:20:00,
2013-09-11 18:26:00,93.6,56.6,30.09,SSW,202,4.0,4.3,29,0.00,,---,0.00,VWS V14.01,2013-09-11 23:26:00,
2013-09-11 18:31:00,93.4,57.3,30.09,South,180,0.0,4.0,30,0.00,,---,0.00,VWS V14.01,2013-09-11 23:31:00,
2013-09-11 18:36:00,92.7,56.7,30.09,SSW,202,3.6,4.0,30,0.00,,---,0.00,VWS V14.01,2013-09-11 23:36:00,
2013-09-11 18:41:00,91.8,56.0,30.09,SSW,202,3.1,3.6,30,0.00,,---,0.00,VWS V14.01,2013-09-11 23:41:00,
2013-09-11 18:46:00,91.0,56.2,30.09,SSW,202,0.9,2.7,31,0.00,,---,0.00,VWS V14.01,2013-09-11 23:46:00,
2013-09-11 18:51:00,90.5,55.8,30.09,SSE,158,3.8,3.8,31,0.00,,---,0.00,VWS V14.01,2013-09-11 23:51:00,
2013-09-11 18:56:00,90.0,55.3,30.09,SW,225,2.5,3.8,31,0.00,,---,0.00,VWS V14.01,2013-09-11 23:56:00,
2013-09-11 19:01:00,89.4,55.7,30.09,SSW,202,0.0,1.3,32,0.00,,---,0.00,VWS V14.01,2013-09-12 00:01:00,
2013-09-11 19:06:00,88.9,55.2,30.09,South,180,1.3,2.7,32,0.00,,---,0.00,VWS V14.01,2013-09-12 00:06:00,
2013-09-11 19:11:00,88.5,55.8,30.12,South,180,2.9,3.1,33,0.00,,---,0.00,VWS V14.01,2013-09-12 00:11:00,
2013-09-11 19:16:00,88.2,55.5,30.12,SSW,202,1.6,3.6,33,0.00,,---,0.00,VWS V14.01,2013-09-12 00:16:00,
2013-09-11 19:21:00,87.8,55.2,30.12,South,180,0.0,2.9,33,0.00,,---,0.00,VWS V14.01,2013-09-12 00:21:00,
2013-09-11 19:26:00,87.3,55.5,30.12,SSW,202,0.0,1.3,34,0.00,,---,0.00,VWS V14.01,2013-09-12 00:26:00,
2013-09-11 19:31:00,87.1,55.3,30.12,South,180,0.9,2.5,34,0.00,,---,0.00,VWS V14.01,2013-09-12 00:31:00,
2013-09-11 19:36:00,86.7,55.8,30.12,South,180,1.6,3.4,35,0.00,,---,0.00,VWS V14.01,2013-09-12 00:36:00,
2013-09-11 19:41:00,86.2,55.3,30.12,SSE,158,1.3,1.6,35,0.00,,---,0.00,VWS V14.01,2013-09-12 00:41:00,
2013-09-11 19:46:00,85.6,55.7,30.12,South,180,1.1,1.6,36,0.00,,---,0.00,VWS V14.01,2013-09-12 00:46:00,
2013-09-11 19:51:00,85.1,55.9,30.12,SSE,158,1.1,3.4,37,0.00,,---,0.00,VWS V14.01,2013-09-12 00:51:00,
2013-09-11 19:56:00,84.4,56.0,30.12,SE,135,1.6,2.2,38,0.00,,---,0.00,VWS V14.01,2013-09-12 00:56:00,
2013-09-11 20:01:00,83.7,56.1,30.12,SSE,158,0.0,0.0,39,0.00,,---,0.00,VWS V14.01,2013-09-12 01:01:00,
2013-09-11 20:06:00,83.3,56.5,30.12,SSE,158,1.3,2.0,40,0.00,,---,0.00,VWS V14.01,2013-09-12 01:06:00,
2013-09-11 20:12:00,82.8,56.0,30.12,SE,135,2.9,2.9,40,0.00,,---,0.00,VWS V14.01,2013-09-12 01:12:00,
2013-09-11 20:17:00,82.6,56.5,30.12,SSE,158,2.2,2.7,41,0.00,,---,0.00,VWS V14.01,2013-09-12 01:17:00,
2013-09-11 20:22:00,82.4,56.4,30.12,SSE,158,0.0,2.0,41,0.00,,---,0.00,VWS V14.01,2013-09-12 01:22:00,
2013-09-11 20:27:00,82.4,56.4,30.15,SE,135,2.7,2.7,41,0.00,,---,0.00,VWS V14.01,2013-09-12 01:27:00,
2013-09-11 20:32:00,82.4,57.0,30.15,SW,225,3.1,3.1,42,0.00,,---,0.00,VWS V14.01,2013-09-12 01:32:00,
2013-09-11 20:37:00,82.2,56.9,30.15,SSE,158,1.1,3.1,42,0.00,,---,0.00,VWS V14.01,2013-09-12 01:37:00,
2013-09-11 20:42:00,82.0,57.4,30.15,SE,135,1.3,2.0,43,0.00,,---,0.00,VWS V14.01,2013-09-12 01:42:00,
2013-09-11 20:47:00,81.9,57.8,30.15,SSW,202,0.0,2.9,44,0.00,,---,0.00,VWS V14.01,2013-09-12 01:47:00,
2013-09-11 20:53:00,81.7,57.7,30.15,ESE,112,1.1,3.4,44,0.00,,---,0.00,VWS V14.01,2013-09-12 01:53:00,
2013-09-11 20:59:00,81.5,58.1,30.18,SSE,158,3.6,3.6,45,0.00,,---,0.00,VWS V14.01,2013-09-12 01:59:00,
2013-09-11 21:04:00,81.1,57.8,30.18,SSW,202,2.2,4.9,45,0.00,,---,0.00,VWS V14.01,2013-09-12 02:04:00,
2013-09-11 21:09:00,81.0,58.3,30.12,East,90,1.1,1.6,46,0.00,,---,0.00,VWS V14.01,2013-09-12 02:09:00,
2013-09-11 21:14:00,80.8,58.7,30.12,SSE,158,1.1,2.9,47,0.00,,---,0.00,VWS V14.01,2013-09-12 02:14:00,
2013-09-11 21:19:00,80.4,58.4,30.12,SSW,202,0.0,2.5,47,0.00,,---,0.00,VWS V14.01,2013-09-12 02:19:00,
2013-09-11 21:24:00,80.4,59.0,30.12,SSW,202,1.3,2.7,48,0.00,,---,0.00,VWS V14.01,2013-09-12 02:24:00,
2013-09-11 21:29:00,80.2,58.8,30.12,SSE,158,3.8,3.8,48,0.00,,---,0.00,VWS V14.01,2013-09-12 02:29:00,
2013-09-11 21:34:00,80.1,59.2,30.12,South,180,0.9,2.0,49,0.00,,---,0.00,VWS V14.01,2013-09-12 02:34:00,
2013-09-11 21:39:00,79.9,59.0,30.15,SSE,158,0.0,1.3,49,0.00,,---,0.00,VWS V14.01,2013-09-12 02:39:00,
2013-09-11 21:44:00,79.7,59.4,30.15,South,180,2.0,2.5,50,0.00,,---,0.00,VWS V14.01,2013-09-12 02:44:00,
2013-09-11 21:49:00,79.7,59.4,30.15,SSE,158,2.5,3.6,50,0.00,,---,0.00,VWS V14.01,2013-09-12 02:49:00,
2013-09-11 21:54:00,79.5,59.3,30.15,SSE,158,2.5,2.5,50,0.00,,---,0.00,VWS V14.01,2013-09-12 02:54:00,
2013-09-11 21:59:00,79.5,59.8,30.15,SSW,202,1.3,3.4,51,0.00,,---,0.00,VWS V14.01,2013-09-12 02:59:00,
2013-09-11 22:04:00,79.3,59.7,30.15,SSE,158,2.7,2.7,51,0.00,,---,0.00,VWS V14.01,2013-09-12 03:04:00,
2013-09-11 22:09:00,79.3,60.2,30.12,SSW,202,1.1,2.2,52,0.00,,---,0.00,VWS V14.01,2013-09-12 03:09:00,
2013-09-11 22:14:00,79.3,60.2,30.12,SSE,158,1.6,3.6,52,0.00,,---,0.00,VWS V14.01,2013-09-12 03:14:00,
2013-09-11 22:19:00,79.2,60.0,30.12,SSW,202,0.0,1.3,52,0.00,,---,0.00,VWS V14.01,2013-09-12 03:19:00,
2013-09-11 22:24:00,79.0,59.9,30.12,SSW,202,0.9,2.5,52,0.00,,---,0.00,VWS V14.01,2013-09-12 03:24:00,
2013-09-11 22:29:00,78.8,59.7,30.12,SSE,158,2.5,2.7,52,0.00,,---,0.00,VWS V14.01,2013-09-12 03:29:00,
2013-09-11 22:34:00,78.6,60.1,30.12,SSW,202,4.0,4.0,53,0.00,,---,0.00,VWS V14.01,2013-09-12 03:34:00,
2013-09-11 22:39:00,78.8,60.2,30.15,South,180,2.9,2.9,53,0.00,,---,0.00,VWS V14.01,2013-09-12 03:39:00,
2013-09-11 22:44:00,78.6,60.1,30.15,SSE,158,1.1,2.9,53,0.00,,---,0.00,VWS V14.01,2013-09-12 03:44:00,
2013-09-11 22:49:00,78.4,60.4,30.15,SSW,202,0.9,2.9,54,0.00,,---,0.00,VWS V14.01,2013-09-12 03:49:00,
2013-09-11 22:54:00,78.3,60.3,30.15,South,180,3.1,3.1,54,0.00,,---,0.00,VWS V14.01,2013-09-12 03:54:00,
2013-09-11 22:59:00,78.1,60.1,30.15,South,180,0.9,1.6,54,0.00,,---,0.00,VWS V14.01,2013-09-12 03:59:00,
2013-09-11 23:01:00,77.9,59.9,30.15,SSW,202,1.6,2.7,54,0.00,,---,0.00,VWS V14.01,2013-09-12 04:01:00,
2013-09-11 23:02:00,77.9,59.9,30.15,SSE,158,2.2,2.7,54,0.00,,---,0.00,VWS V14.01,2013-09-12 04:02:00,
2013-09-11 23:03:00,77.9,59.9,30.15,SSW,202,0.0,2.5,54,0.00,,---,0.00,VWS V14.01,2013-09-12 04:03:00,
2013-09-11 23:08:00,77.7,59.8,30.15,SSW,202,0.0,1.3,54,0.00,,---,0.00,VWS V14.01,2013-09-12 04:08:00,
2013-09-11 23:13:00,77.5,60.1,30.15,SSW,202,0.9,2.7,55,0.00,,---,0.00,VWS V14.01,2013-09-12 04:13:00,
2013-09-11 23:14:00,77.5,60.1,30.15,SSW,202,0.9,2.7,55,0.00,,---,0.00,VWS V14.01,2013-09-12 04:14:00,
2013-09-11 23:18:00,77.4,60.0,30.15,South,180,0.0,2.0,55,0.00,,---,0.00,VWS V14.01,2013-09-12 04:18:00,
2013-09-11 23:19:00,77.4,60.0,30.15,South,180,0.0,1.3,55,0.00,,---,0.00,VWS V14.01,2013-09-12 04:19:00,
2013-09-11 23:24:00,77.0,59.6,30.15,South,180,1.1,1.1,55,0.00,,---,0.00,VWS V14.01,2013-09-12 04:24:00,
2013-09-11 23:29:00,76.8,60.0,30.15,SW,225,0.0,2.0,56,0.00,,---,0.00,VWS V14.01,2013-09-12 04:29:00,
2013-09-11 23:34:00,76.8,60.9,30.15,North,0,4.9,4.9,58,0.00,,---,0.00,VWS V14.01,2013-09-12 04:34:00,
2013-09-11 23:39:00,76.6,61.7,30.18,North,0,2.7,4.3,60,0.00,,---,0.00,VWS V14.01,2013-09-12 04:39:00,
2013-09-11 23:44:00,77.0,61.1,30.18,NW,315,2.5,8.7,58,0.00,,---,0.00,VWS V14.01,2013-09-12 04:44:00,
2013-09-11 23:49:00,77.9,59.9,30.18,NNW,338,4.7,4.7,54,0.00,,---,0.00,VWS V14.01,2013-09-12 04:49:00,
2013-09-11 23:54:00,78.8,61.3,30.18,ENE,68,4.3,5.6,55,0.00,,---,0.00,VWS V14.01,2013-09-12 04:54:00,